#timestamp,LO_Frequency,Hit,StdDev 
1515834015.6,286046999.7,N
1515834035.5,286047000.3,N
1515834055.3,286046999.8,N
1515834075.2,286047002.4,N
1515834095.9,286047001.9,N
1515834115.7,286047002.7,N
1515834135.6,286047002.4,N
1515834155.4,286047004.2,Y
1515834175.2,286047002.6,P
1515834195.1,286047002.5,N
1515834196.0,286047002.5,P
1515834215.8,286047001.4,N
1515834235.7,286047001.5,N
1515834255.5,286047004.2,Y
1515834275.3,286046998.1,P
1515834295.2,286047000.6,N
1515834315.0,286047000.6,N
1515834315.9,286047000.6,N
1515834335.7,286046999.8,N
1515834355.6,286047002.5,N
1515834375.4,286046998.1,N
1515834395.3,286047001.2,N
1515834415.1,286047000.6,N
1515834416.0,286047000.6,N
1515834435.8,286047000.7,N
1515834455.7,286047000.9,N
1515834475.5,286047000.4,N
1515834495.4,286047001.1,N
1515834515.2,286046998.7,N
1515834535.0,286047000.0,N
1515834535.9,286047000.0,N
1515834555.8,286047001.1,N
1515834575.6,286047000.8,N
1515834595.4,286047001.2,N
1515834615.3,286046998.6,N
1515834635.1,286046999.4,N
1515834655.9,286046999.3,N
1515834675.7,286046996.6,Y
1515834695.8,286046997.9,P
1515834715.6,286046997.2,N
1515834735.5,286046997.1,N
1515834755.3,286046999.3,N
1515834775.1,286046999.3,N
1515834795.9,286046996.5,N
1515834815.7,286046998.6,N
1515834835.6,286046999.1,N
1515834855.4,286046999.2,N
1515834875.2,286046998.4,N
1515834895.1,286047001.2,N
1515834896.0,286047001.2,N
1515834915.8,286046998.3,N
1515834935.6,286046998.1,N
1515834955.5,286047001.1,N
1515834975.3,286047000.7,N
1515834995.2,286047001.1,N
1515835015.9,286047000.7,N
1515835035.7,286046998.4,N
1515835055.6,286046999.2,N
1515835075.4,286046997.5,N
1515835095.2,286046997.8,N
1515835115.1,286046997.3,N
1515835116.0,286046997.3,N
1515835135.8,286046997.5,N
1515835155.7,286046997.8,N
1515835175.5,286046997.9,N
1515835195.3,286046996.6,N
1515835215.2,286046998.9,N
1515835235.0,286046999.5,N
1515835235.9,286046999.5,N
1515835255.8,286046999.4,N
1515835275.6,286046998.3,N
1515835295.4,286047000.6,N
1515835315.3,286047000.7,N
1515835335.1,286047001.2,N
1515835355.8,286046998.8,N
1515835375.7,286046999.6,N
1515835395.5,286046999.3,N
1515835415.4,286046996.9,N
1515835435.2,286046998.4,N
1515835455.0,286046998.6,N
1515835455.9,286046998.6,N
1515835475.8,286046999.4,N
1515835495.6,286046998.7,N
1515835515.4,286046998.8,N
1515835535.3,286047000.9,N
1515835555.1,286046998.6,N
1515835575.9,286046998.2,N
1515835595.7,286046997.3,N
1515835615.5,286046999.0,N
1515835665.4,286046997.4,E
1515835675.3,286046998.6,N
1515835695.2,286047000.8,P
1515835715.0,286047000.1,N
1515835715.9,286047000.1,N
1515835735.8,286047000.6,N
1515835755.6,286047000.2,N
1515835775.4,286047000.1,N
1515835795.3,286047002.6,Y
1515835815.1,286047002.6,P
1515835835.9,286047002.1,N
1515835855.7,286047002.7,N
1515835875.5,286047002.8,N
1515835895.4,286047011.9,Y
1515835915.2,286047000.4,P
1515835935.1,286047000.5,N
1515835936.0,286047000.5,N
1515835955.8,286046998.2,N
1515835975.6,286046998.9,N
1515835995.5,286046998.2,N
1515836015.3,286046998.1,N
1515836035.1,286046998.4,N
1515836055.9,286046998.3,N
1515836075.7,286046999.0,N
1515836095.6,286046999.5,N
1515836115.4,286046998.8,N
1515836135.2,286046998.4,N
1515836155.1,286047000.7,N
1515836156.0,286047000.7,N
1515836175.8,286046999.9,N
1515836195.6,286047000.5,N
1515836215.5,286047002.8,N
1515836235.3,286047002.4,N
1515836255.2,286047002.4,N
1515836275.9,286047001.8,N
1515836295.7,286046999.9,N
1515836315.6,286047002.7,N
1515836335.4,286047000.4,N
1515836355.2,286047000.7,N
1515836375.1,286047000.2,N
1515836376.0,286047000.2,N
1515836395.8,286047000.6,N
1515836415.7,286047000.0,N
1515836435.5,286047000.8,N
1515836455.3,286046998.5,N
1515836475.2,286046998.6,N
1515836495.0,286047001.2,N
1515836495.9,286047001.2,N
1515836515.8,286046998.8,N
1515836535.6,286046997.4,N
1515836555.4,286046996.5,N
1515836575.3,286046997.7,N
1515836595.1,286046997.7,N
1515836615.8,286046997.9,N
1515836635.7,286046995.2,N
1515836655.5,286046995.0,N
1515836675.4,286046995.0,N
1515836695.2,286046995.8,N
1515836715.0,286046995.5,N
1515836715.9,286046995.5,N
1515836735.8,286046995.2,N
1515836755.6,286046995.9,N
1515836775.4,286046996.0,N
1515836795.3,286046996.4,N
1515836815.1,286046995.1,N
1515836835.9,286046995.6,N
1515836855.7,286046993.3,N
1515836875.5,286046993.4,N
1515836895.4,286046994.2,N
1515836915.2,286046993.4,N
1515836935.0,286046996.1,N
1515836936.0,286046996.1,N
1515836955.8,286046996.2,N
1515836975.6,286046993.3,Y
1515836995.5,286046997.8,P
1515837015.3,286046997.4,P
1515837035.1,286046996.8,P
1515837055.9,286046997.8,Y
1515837075.7,286046998.3,P
1515837095.6,286046998.4,N
1515837115.4,286047000.9,N
1515837135.2,286046999.8,N
1515837155.1,286047002.7,N
1515837156.0,286047002.7,N
1515837175.8,286047001.2,N
1515837195.7,286046998.2,N
1515837215.5,286046999.3,N
1515837235.3,286046996.5,N
1515837255.2,286046996.8,N
1515837275.9,286046997.8,N
1515837295.7,286046999.1,N
1515837315.6,286046998.5,N
1515837335.4,286046998.5,N
1515837355.3,286046998.6,N
1515837375.1,286046998.7,N
1515837376.0,286046998.7,N
1515837395.8,286046998.4,N
1515837415.7,286046999.2,N
1515837435.5,286046997.3,N
1515837455.3,286046997.7,N
1515837475.2,286046997.1,N
1515837495.0,286046997.2,N
1515837495.9,286046997.2,N
1515837515.8,286046994.9,Y
1515837535.6,286046997.3,P
1515837555.4,286046996.6,P
1515837575.3,286046999.1,N
1515837595.1,286046998.9,N
